DW5056 Weather Reports


Display with metric or nautical units.
time (UTC)temp
F
wind
direction
speed
MPH
gust
MPH
rain 1hr
in
rain 24hr
in
rain mn
in
humidity
%
barometer
mb
20260507201326 56 16 0.0 0.0 0.00 0.00 0.00 69 1016.8
20260507200819 56 15 0.0 0.0 0.00 0.00 0.00 70 1016.7
20260507200314 56 16 0.0 0.0 0.00 0.00 0.00 70 1016.5
20260507195826 56 16 0.0 0.0 0.00 0.00 0.00 70 1016.5
20260507195342 57 16 0.0 0.0 0.00 0.00 0.00 69 1016.5
20260507194857 57 15 0.0 0.0 0.00 0.00 0.00 68 1016.4
20260507194331 57 16 0.0 0.0 0.00 0.00 0.00 67 1016.5
20260507193822 57 15 0.0 0.0 0.00 0.00 0.00 67 1016.4
20260507193314 57 16 0.0 0.0 0.00 0.00 0.00 66 1016.4
20260507192837 57 15 0.0 0.0 0.00 0.00 0.00 66 1016.3
20260507192344 57 15 0.0 0.0 0.00 0.00 0.00 66 1016.3
20260507191824 57 15 0.0 0.0 0.00 0.00 0.00 65 1016.3
20260507191347 57 16 0.0 0.0 0.00 0.00 0.00 65 1016.3
20260507190832 57 16 0.0 0.0 0.00 0.00 0.00 65 1016.2
20260507190336 57 15 0.0 0.0 0.00 0.00 0.00 65 1016.2
20260507185845 57 15 0.0 0.0 0.00 0.00 0.00 65 1016.2
20260507185338 58 15 0.0 0.0 0.00 0.00 0.00 65 1016.2
20260507184901 58 16 0.0 0.0 0.00 0.00 0.00 63 1016.2
20260507184315 58 16 0.0 0.0 0.00 0.00 0.00 64 1016.2
20260507183822 58 16 0.0 0.0 0.00 0.00 0.00 64 1016.2
20260507183323 58 15 0.0 0.0 0.00 0.00 0.00 63 1016.2
20260507182818 58 15 0.0 0.0 0.00 0.00 0.00 64 1016.1
20260507182313 58 15 0.0 0.0 0.00 0.00 0.00 63 1016.1
20260507181837 58 15 0.0 0.0 0.00 0.00 0.00 62 1016.1
20260507181328 58 16 0.0 0.0 0.00 0.00 0.00 62 1016.2
20260507180815 59 15 0.0 0.0 0.00 0.00 0.00 62 1016.2
20260507180317 59 15 0.0 0.0 0.00 0.00 0.00 64 1016.2
20260507175820 59 16 0.0 0.0 0.00 0.00 0.00 63 1016.2
20260507175314 59 16 0.0 0.0 0.00 0.00 0.00 62 1016.2
20260507174850 59 15 0.0 0.0 0.00 0.00 0.00 63 1016.1
20260507174322 59 15 0.0 0.0 0.00 0.00 0.00 66 1016.1
20260507173832 59 16 0.0 0.0 0.00 0.00 0.00 65 1016.1
20260507173328 59 15 0.0 0.0 0.00 0.00 0.00 63 1016.1
20260507172847 59 16 0.0 1.0 0.00 0.00 0.00 64 1016.1
20260507172319 60 15 0.0 1.0 0.00 0.00 0.00 65 1016.2
20260507171814 60 16 0.0 2.0 0.00 0.00 0.00 64 1016.2
20260507171317 60 15 0.0 2.0 0.00 0.00 0.00 62 1016.2
20260507170825 60 16 0.0 2.0 0.00 0.00 0.00 62 1016.2
20260507170327 60 16 0.0 2.0 0.00 0.00 0.00 60 1016.2
20260507165840 60 337 0.0 1.0 0.00 0.00 0.00 62 1016.2
20260507165327 60 337 0.0 1.0 0.00 0.00 0.00 60 1016.2
20260507164822 61 338 0.0 1.0 0.00 0.00 0.00 58 1016.2
20260507164324 61 290 0.0 1.0 0.00 0.00 0.00 62 1016.2
20260507163839 61 291 0.0 2.0 0.00 0.00 0.00 62 1016.2
20260507163315 61 291 0.0 2.0 0.00 0.00 0.00 59 1016.2
20260507162825 61 19 0.0 2.0 0.00 0.00 0.00 59 1016.2
20260507162341 61 19 0.0 1.0 0.00 0.00 0.00 58 1016.1
20260507161822 61 19 0.0 1.0 0.00 0.00 0.00 59 1016.1
20260507161338 61 19 0.0 2.0 0.00 0.00 0.00 59 1016.1
20260507160830 61 19 0.0 2.0 0.00 0.00 0.00 59 1016.1
20260507160332 61 36 0.0 2.0 0.00 0.00 0.00 60 1016.2
20260507155835 61 92 0.0 2.0 0.00 0.00 0.00 58 1016.1
20260507155327 61 139 1.0 3.0 0.00 0.00 0.00 58 1016.1
20260507154827 61 35 0.0 3.0 0.00 0.00 0.00 58 1016.1
20260507154321 62 8 1.0 3.0 0.00 0.00 0.00 56 1016.1
20260507153831 62 37 0.0 0.0 0.00 0.00 0.00 56 1016.1
20260507153327 62 37 0.0 1.0 0.00 0.00 0.00 57 1016.1
20260507152822 61 37 0.0 2.0 0.00 0.00 0.00 57 1016.1
20260507152317 61 37 0.0 2.0 0.00 0.00 0.00 58 1016.1
20260507151814 61 37 1.0 5.0 0.00 0.00 0.00 57 1016.1
20260507151315 61 18 2.0 5.0 0.00 0.00 0.00 57 1016.1
20260507150840 61 25 1.0 4.0 0.00 0.00 0.00 58 1016.1
20260507150314 61 139 2.0 4.0 0.00 0.00 0.00 56 1016.1
20260507145856 62 321 2.0 3.0 0.00 0.00 0.00 57 1016.1
20260507145322 61 8 0.0 4.0 0.00 0.00 0.00 57 1016.0
20260507144818 62 204 2.0 4.0 0.00 0.00 0.00 55 1016.0
20260507144341 62 203 0.0 1.0 0.00 0.00 0.00 56 1016.1
20260507143835 62 202 0.0 2.0 0.00 0.00 0.00 56 1016.0
20260507143330 61 203 0.0 2.0 0.00 0.00 0.00 57 1016.0
20260507142852 61 346 0.0 2.0 0.00 0.00 0.00 59 1016.1
20260507142317 60 314 1.0 2.0 0.00 0.00 0.00 58 1016.1
20260507141839 60 8 0.0 2.0 0.00 0.00 0.00 59 1016.1
20260507141319 60 8 0.0 2.0 0.00 0.00 0.00 58 1016.2
20260507140827 59 8 0.0 1.0 0.00 0.00 0.00 59 1016.2
20260507140327 59 8 1.0 2.0 0.00 0.00 0.00 60 1016.3
20260507135838 59 281 0.0 2.0 0.00 0.00 0.00 61 1016.3
20260507135325 59 19 1.0 2.0 0.00 0.00 0.00 60 1016.3
20260507134819 59 358 0.0 1.0 0.00 0.00 0.00 62 1016.4
20260507134322 59 358 0.0 3.0 0.00 0.00 0.00 61 1016.4
20260507133838 59 358 1.0 3.0 0.00 0.00 0.00 60 1016.3
20260507133334 59 353 1.0 2.0 0.00 0.00 0.00 61 1016.3
20260507132827 59 341 1.0 2.0 0.00 0.00 0.00 61 1016.3
20260507132320 59 324 0.0 2.0 0.00 0.00 0.00 61 1016.4
20260507131840 59 325 1.0 2.0 0.00 0.00 0.00 62 1016.3
20260507131314 59 56 0.0 3.0 0.00 0.00 0.00 62 1016.3
20260507130827 59 51 1.0 3.0 0.00 0.00 0.00 61 1016.3
20260507130321 59 1 2.0 3.0 0.00 0.00 0.00 62 1016.3
20260507125836 59 328 1.0 3.0 0.00 0.00 0.00 61 1016.3
20260507125322 59 319 1.0 3.0 0.00 0.00 0.00 62 1016.3
20260507124845 59 6 1.0 3.0 0.00 0.00 0.00 62 1016.3
20260507124319 59 25 1.0 3.0 0.00 0.00 0.00 64 1016.3
20260507123849 59 50 1.0 5.0 0.00 0.00 0.00 62 1016.3
20260507123330 59 8 1.0 5.0 0.00 0.00 0.00 63 1016.2
20260507122821 59 349 2.0 4.0 0.00 0.00 0.00 63 1016.2
20260507122317 59 19 1.0 4.0 0.00 0.00 0.00 63 1016.3
20260507121832 59 353 1.0 6.0 0.00 0.00 0.00 63 1016.2
20260507121316 59 353 4.0 6.0 0.00 0.00 0.00 63 1016.2
20260507120823 60 8 1.0 4.0 0.00 0.00 0.00 62 1016.2
20260507120345 60 48 2.0 6.0 0.00 0.00 0.00 61 1016.2
20260507115838 60 51 3.0 6.0 0.00 0.00 0.00 62 1016.1
20260507115327 60 349 3.0 6.0 0.00 0.00 0.00 62 1016.1
20260507114830 61 321 2.0 6.0 0.00 0.00 0.00 58 1016.1
20260507114326 61 49 1.0 4.0 0.00 0.00 0.00 57 1016.1
20260507113822 61 41 1.0 4.0 0.00 0.00 0.00 57 1016.1
20260507113317 61 11 1.0 4.0 0.00 0.00 0.00 57 1016.1
20260507112836 60 333 2.0 4.0 0.00 0.00 0.00 58 1016.1
20260507112323 60 302 0.0 2.0 0.00 0.00 0.00 60 1016.1
20260507111825 59 13 0.0 4.0 0.00 0.00 0.00 58 1016.1
20260507111319 59 8 3.0 5.0 0.00 0.00 0.00 59 1016.2
20260507110834 59 314 3.0 5.0 0.00 0.00 0.00 58 1016.1
20260507110356 60 300 1.0 5.0 0.00 0.00 0.00 59 1016.2
20260507105823 60 8 3.0 5.0 0.00 0.00 0.00 58 1016.2
20260507105337 60 328 3.0 5.0 0.00 0.00 0.00 58 1016.2
20260507104827 61 339 2.0 5.0 0.00 0.00 0.00 58 1016.2
20260507104331 61 327 3.0 7.0 0.00 0.00 0.00 58 1016.2
20260507103838 62 33 3.0 7.0 0.00 0.00 0.00 56 1016.2
20260507103318 62 293 2.0 8.0 0.00 0.00 0.00 57 1016.2
20260507102830 62 325 4.0 8.0 0.00 0.00 0.00 57 1016.2
20260507102323 63 12 4.0 6.0 0.00 0.00 0.00 57 1016.2
20260507101817 64 349 3.0 6.0 0.00 0.00 0.00 56 1016.2
20260507101339 63 20 1.0 4.0 0.00 0.00 0.00 57 1016.2
20260507100832 62 163 2.0 4.0 0.00 0.00 0.00 59 1016.2
20260507100327 62 201 2.0 4.0 0.00 0.00 0.00 59 1016.1
20260507095820 62 130 2.0 4.0 0.00 0.00 0.00 58 1016.2
20260507095350 62 273 2.0 5.0 0.00 0.00 0.00 57 1016.1
20260507094851 63 344 2.0 5.0 0.00 0.00 0.00 57 1016.1
20260507094324 62 51 1.0 5.0 0.00 0.00 0.00 60 1016.2
20260507093838 61 19 1.0 4.0 0.00 0.00 0.00 63 1016.1
20260507093332 60 167 1.0 6.0 0.00 0.00 0.00 62 1016.1
20260507092850 60 4 2.0 7.0 0.00 0.00 0.00 63 1016.1
20260507092344 60 42 3.0 8.0 0.00 0.00 0.00 65 1016.1
20260507091819 59 46 0.0 6.0 0.00 0.00 0.00 67 1016.1
20260507091319 59 335 1.0 7.0 0.00 0.00 0.00 66 1016.0
20260507090825 58 27 4.0 7.0 0.00 0.00 0.00 66 1016.0
20260507090326 58 321 4.0 7.0 0.00 0.00 0.00 66 1016.0
20260507085839 59 330 2.0 6.0 0.00 0.00 0.00 67 1016.0
20260507085326 58 15 2.0 6.0 0.00 0.00 0.00 68 1016.0
20260507084821 57 288 2.0 6.0 0.00 0.00 0.00 68 1016.0
20260507084321 57 294 2.0 7.0 0.00 0.00 0.00 69 1015.9
20260507083835 57 47 5.0 7.0 0.00 0.00 0.00 69 1016.0
20260507083327 57 300 3.0 6.0 0.00 0.00 0.00 70 1015.9
20260507082823 57 16 3.0 8.0 0.00 0.00 0.00 68 1016.0
20260507082318 57 8 4.0 8.0 0.00 0.00 0.00 68 1016.0
20260507081814 57 297 2.0 5.0 0.00 0.00 0.00 69 1016.0
20260507081315 57 336 2.0 5.0 0.00 0.00 0.00 70 1016.1
20260507080851 56 39 1.0 5.0 0.00 0.00 0.00 72 1016.0
20260507080324 56 39 3.0 5.0 0.00 0.00 0.00 71 1016.0
20260507075818 56 347 1.0 5.0 0.00 0.00 0.00 72 1015.9
20260507075326 56 33 1.0 5.0 0.00 0.00 0.00 72 1015.9
20260507074845 55 13 3.0 5.0 0.00 0.00 0.00 72 1015.9
20260507074342 55 314 3.0 5.0 0.00 0.00 0.00 74 1015.9
20260507073837 54 319 1.0 5.0 0.00 0.00 0.00 76 1015.8
20260507073331 54 308 2.0 6.0 0.00 0.00 0.00 75 1015.8
20260507072832 54 353 3.0 6.0 0.00 0.00 0.00 76 1015.8
20260507072319 54 340 4.0 6.0 0.00 0.00 0.00 76 1015.8
20260507071822 53 266 1.0 4.0 0.00 0.00 0.00 78 1015.7
20260507071317 53 348 2.0 4.0 0.00 0.00 0.00 77 1015.7
20260507070832 53 13 2.0 4.0 0.00 0.00 0.00 77 1015.6
20260507070354 53 355 1.0 3.0 0.00 0.00 0.00 79 1015.6
20260507065815 53 15 0.0 2.0 0.00 0.00 0.00 80 1015.6
20260507065328 52 65 1.0 3.0 0.00 0.00 0.00 80 1015.6
20260507064823 52 15 2.0 5.0 0.00 0.00 0.00 80 1015.6
20260507064325 52 236 1.0 5.0 0.00 0.00 0.00 81 1015.7
20260507063832 51 37 2.0 6.0 0.00 0.00 0.00 81 1015.6
20260507063335 51 21 4.0 6.0 0.00 0.00 0.00 81 1015.7
20260507062858 51 302 2.0 7.0 0.00 0.00 0.00 81 1015.6
20260507062325 51 351 5.0 7.0 0.00 0.00 0.00 81 1015.6
20260507061824 51 317 3.0 7.0 0.00 0.00 0.00 82 1015.5
20260507061318 51 314 3.0 6.0 0.00 0.00 0.00 82 1015.5
20260507060831 51 339 4.0 6.0 0.00 0.00 0.00 83 1015.4
20260507060327 51 6 2.0 3.0 0.00 0.00 0.00 84 1015.4
20260507055819 51 347 2.0 3.0 0.00 0.00 0.00 85 1015.3
20260507055325 50 349 0.0 3.0 0.00 0.00 0.00 85 1015.3
20260507054827 50 33 2.0 4.0 0.00 0.00 0.00 85 1015.3
20260507054321 50 6 2.0 4.0 0.00 0.00 0.00 85 1015.3
20260507053817 50 11 1.0 2.0 0.00 0.00 0.00 85 1015.2
20260507053400 50 27 0.0 2.0 0.00 0.00 0.00 85 1015.2
20260507052813 50 27 1.0 2.0 0.00 0.00 0.00 85 1015.1
20260507052348 50 353 1.0 5.0 0.00 0.00 0.00 85 1015.1
20260507051822 50 343 1.0 6.0 0.00 0.00 0.00 85 1015.0
20260507051324 50 353 3.0 6.0 0.00 0.00 0.00 85 1015.0
20260507050813 50 330 3.0 6.0 0.00 0.00 0.00 86 1014.9
20260507050333 50 359 1.0 3.0 0.00 0.00 0.00 86 1014.8
20260507045825 50 27 1.0 3.0 0.00 0.00 0.00 86 1014.8
20260507045331 50 49 0.0 1.0 0.00 0.00 0.00 86 1014.8
20260507044852 50 49 0.0 0.0 0.00 0.00 0.00 86 1014.6
20260507044334 50 49 0.0 0.0 0.00 0.00 0.00 86 1014.6
20260507043819 50 50 0.0 0.0 0.00 0.00 0.00 86 1014.6
20260507043340 50 49 0.0 0.0 0.00 0.00 0.00 86 1014.5
20260507042816 50 50 0.0 1.0 0.00 0.00 0.00 85 1014.6
20260507042327 50 49 0.0 1.0 0.00 0.00 0.00 85 1014.5
20260507041849 50 49 0.0 1.0 0.00 0.00 0.00 85 1014.4
20260507041324 50 50 0.0 2.0 0.00 0.00 0.00 85 1014.3
20260507040818 50 49 1.0 2.0 0.00 0.00 0.00 85 1014.3
20260507040315 50 53 1.0 2.0 0.00 0.00 0.00 85 1014.2
20260507035825 50 53 0.0 2.0 0.00 0.00 0.00 85 1014.2
20260507035315 50 52 0.0 2.0 0.00 0.00 0.00 85 1014.2
20260507034816 50 52 0.0 1.0 0.00 0.00 0.00 84 1014.1
20260507034329 50 58 0.0 2.0 0.00 0.00 0.00 84 1014.2
20260507033824 51 58 0.0 3.0 0.00 0.00 0.00 84 1014.1
20260507033318 51 61 1.0 4.0 0.00 0.00 0.00 84 1014.1
20260507032818 51 8 1.0 4.0 0.00 0.00 0.00 84 1014.0
20260507032348 51 341 1.0 4.0 0.00 0.00 0.00 84 1014.0
20260507031822 51 342 1.0 4.0 0.00 0.00 0.00 84 1014.0
20260507031323 51 70 2.0 4.0 0.00 0.00 0.00 83 1014.0
20260507030830 51 353 2.0 4.0 0.00 0.00 0.00 83 1014.0
20260507030332 51 356 1.0 5.0 0.00 0.00 0.00 83 1014.0
20260507025817 51 49 2.0 5.0 0.00 0.00 0.00 83 1013.9
20260507025330 51 13 0.0 3.0 0.00 0.00 0.00 82 1013.9
20260507024847 51 360 1.0 5.0 0.00 0.00 0.00 82 1013.9
20260507024342 51 345 1.0 4.0 0.00 0.00 0.00 82 1013.9
20260507023818 51 347 2.0 4.0 0.00 0.00 0.00 82 1013.9
20260507023314 51 6 1.0 4.0 0.00 0.00 0.00 81 1013.9
20260507022816 52 347 1.0 4.0 0.00 0.00 0.00 81 1013.8
20260507022330 52 346 0.0 4.0 0.00 0.00 0.00 81 1013.8
20260507021823 52 338 1.0 4.0 0.00 0.00 0.00 81 1013.7
20260507021319 52 335 1.0 3.0 0.00 0.00 0.00 80 1013.7
20260507020814 52 33 0.0 3.0 0.00 0.00 0.00 80 1013.7
20260507020334 52 344 1.0 3.0 0.00 0.00 0.00 80 1013.6
20260507015901 52 344 0.0 5.0 0.00 0.00 0.00 80 1013.6
20260507015323 52 358 2.0 5.0 0.00 0.00 0.00 80 1013.5
20260507014841 52 4 1.0 4.0 0.00 0.00 0.00 80 1013.4
20260507014343 52 330 0.0 5.0 0.00 0.00 0.00 80 1013.3
20260507013828 52 330 1.0 5.0 0.00 0.00 0.00 80 1013.4
20260507013328 52 347 0.0 2.0 0.00 0.00 0.00 80 1013.4
20260507012823 52 339 0.0 2.0 0.00 0.00 0.00 79 1013.4
20260507012316 52 325 0.0 3.0 0.00 0.00 0.00 79 1013.4
20260507011839 53 359 1.0 3.0 0.00 0.00 0.00 79 1013.4
20260507011315 53 332 1.0 3.0 0.00 0.00 0.00 78 1013.4
20260507010848 53 44 0.0 1.0 0.00 0.00 0.00 78 1013.4
20260507010321 53 44 0.0 3.0 0.00 0.00 0.00 78 1013.4
20260507005827 53 44 1.0 3.0 0.00 0.00 0.00 77 1013.4
20260507005315 53 69 0.0 2.0 0.00 0.00 0.00 77 1013.4
20260507004817 53 25 0.0 3.0 0.00 0.00 0.00 77 1013.3
20260507004313 53 58 0.0 4.0 0.00 0.00 0.00 77 1013.3
20260507003826 53 353 1.0 5.0 0.00 0.00 0.00 77 1013.3
20260507003322 53 341 2.0 5.0 0.00 0.00 0.00 78 1013.3
20260507002823 53 336 0.0 4.0 0.00 0.00 0.00 78 1013.3
20260507002324 52 308 1.0 4.0 0.00 0.00 0.00 78 1013.2
20260507001827 52 328 1.0 3.0 0.00 0.00 0.00 78 1013.2
20260507001321 52 8 0.0 4.0 0.00 0.00 0.00 79 1013.2
20260507000817 52 268 0.0 0.0 0.00 0.00 0.00 80 1013.2
20260507000337 52 269 0.0 0.0 0.00 0.00 0.00 80 1013.2
20260506235825 51 269 0.0 0.0 0.00 0.00 0.00 80 1013.2
20260506235323 52 268 0.0 0.0 0.00 0.00 0.00 80 1013.2
20260506234831 52 269 0.0 0.0 0.00 0.00 0.00 79 1013.2
20260506234334 52 269 0.0 0.0 0.00 0.00 0.00 80 1013.2
20260506233825 52 268 0.0 0.0 0.00 0.00 0.00 79 1013.2
20260506233326 52 269 0.0 1.0 0.00 0.00 0.00 79 1013.2
20260506232820 52 304 0.0 1.0 0.00 0.00 0.00 79 1013.1
20260506232332 52 69 0.0 0.0 0.00 0.00 0.00 79 1013.0
20260506231822 52 69 0.0 0.0 0.00 0.00 0.00 78 1013.0
20260506231324 52 70 0.0 0.0 0.00 0.00 0.00 77 1012.9
20260506230859 52 69 0.0 0.0 0.00 0.00 0.00 78 1012.9
20260506230400 52 69 0.0 0.0 0.00 0.00 0.00 77 1012.9
20260506225824 52 69 0.0 0.0 0.00 0.00 0.00 77 1012.9
20260506225318 52 69 0.0 0.0 0.00 0.00 0.00 77 1012.9
20260506224821 51 70 0.0 0.0 0.00 0.00 0.00 76 1012.9
20260506224344 51 69 0.0 0.0 0.00 0.00 0.00 77 1012.8
20260506223838 52 69 0.0 0.0 0.00 0.00 0.00 76 1012.9
20260506223332 52 69 0.0 0.0 0.00 0.00 0.00 76 1012.8
20260506222828 52 70 0.0 0.0 0.00 0.00 0.00 76 1012.8
20260506222322 52 69 0.0 0.0 0.00 0.00 0.00 76 1012.8
20260506221817 52 69 0.0 0.0 0.00 0.00 0.00 76 1012.7
20260506221320 52 69 0.0 0.0 0.00 0.00 0.00 75 1012.6
20260506220826 52 69 0.0 0.0 0.00 0.00 0.00 75 1012.7
20260506220341 52 69 0.0 0.0 0.00 0.00 0.00 75 1012.7
20260506215815 52 70 0.0 0.0 0.00 0.00 0.00 75 1012.7
20260506215328 53 69 0.0 0.0 0.00 0.00 0.00 75 1012.7
20260506214823 53 69 0.0 0.0 0.00 0.00 0.00 75 1012.7
20260506214342 53 69 0.0 1.0 0.00 0.00 0.00 75 1012.6
20260506213825 52 69 0.0 1.0 0.00 0.00 0.00 75 1012.6
20260506213328 52 72 0.0 1.0 0.00 0.00 0.00 76 1012.6
20260506212824 52 72 0.0 1.0 0.00 0.00 0.00 77 1012.6
20260506212339 52 96 0.0 1.0 0.00 0.00 0.00 77 1012.5
20260506211833 52 317 0.0 1.0 0.00 0.00 0.00 77 1012.5
20260506211334 52 101 0.0 0.0 0.00 0.00 0.00 77 1012.4
20260506210821 52 101 0.0 0.0 0.00 0.00 0.00 77 1012.5
20260506210316 52 101 0.0 0.0 0.00 0.00 0.00 77 1012.5
20260506205829 52 101 0.0 0.0 0.00 0.00 0.00 76 1012.5
20260506205323 52 100 0.0 0.0 0.00 0.00 0.00 76 1012.4
20260506204818 52 101 0.0 1.0 0.00 0.00 0.00 76 1012.3
20260506204315 52 37 0.0 1.0 0.00 0.00 0.00 76 1012.2
20260506203827 53 37 0.0 0.0 0.00 0.00 0.00 76 1012.2
20260506203328 53 37 0.0 0.0 0.00 0.00 0.00 76 1012.1
20260506202824 53 38 0.0 0.0 0.00 0.00 0.00 75 1012.1
20260506202338 53 37 0.0 0.0 0.00 0.00 0.00 74 1012.1
20260506201831 53 37 0.0 1.0 0.00 0.00 0.00 73 1012.1